Retour au catalogue

JILIN-1 GAOFEN 07B 02 XING

ActifScienceSSO
NORAD 68694·PAYLOAD·🇨🇳 China
Ce nom de satellite n'a pas encore été confirmé par des sources officielles.

Lancé Apr 14, 2026 depuis Jiuquan Satellite Launch Center

Loading…

Prochains Passages (prochaines 24 heures)

TLE

FraisSource: Space-Track

Époque: Sep 14, 2026, 12:39 UTC

1 68694U 26080D   26257.52741123  .00003274  00000-0  21158-3 0  9992
2 68694  97.6594 332.9848 0019539 117.4629 242.8589 15.08782508 23118

Suivez JILIN-1 GAOFEN 07B 02 XING en temps réel avec AllMySat

Download on the App Store